SJV621 WAYY-WAJJ

Flight info

Callsign SJV621
Flight time 1h 12m
Altitude 33000
Route OVGOD T17 ANLEP
Aircraft A320/M-SDE3FGHIRWY/LB1

Departure

Time 2026-04-24 12:15
Airport Mozes Kilangin Airport (WAYY)

Arrival

Time 2026-04-24 13:28
Airport Dortheys Hiyo Eluay International Airport (WAJJ)
Time Latitude Longitude Altitude Speed Heading
2026-04-24 11:41 -4.52906 136.88161 110 ft 0 kts 212°
2026-04-24 11:57 -4.52895 136.88167 110 ft 4 kts 209°
2026-04-24 11:58 -4.52871 136.88179 109 ft 4 kts 197°
2026-04-24 11:58 -4.52845 136.88183 110 ft 4 kts 166°
2026-04-24 11:58 -4.52830 136.88175 110 ft 1 kts 122°
2026-04-24 11:58 -4.52828 136.88172 110 ft 0 kts 122°
2026-04-24 12:02 -4.52832 136.88179 110 ft 1 kts 122°
2026-04-24 12:02 -4.52839 136.88190 110 ft 1 kts 122°
2026-04-24 12:02 -4.52845 136.88200 109 ft 3 kts 122°
2026-04-24 12:03 -4.52850 136.88208 109 ft 2 kts 122°
2026-04-24 12:03 -4.52857 136.88219 110 ft 2 kts 122°
2026-04-24 12:03 -4.52862 136.88226 110 ft 0 kts 122°
2026-04-24 12:03 -4.52863 136.88229 110 ft 1 kts 122°
2026-04-24 12:04 -4.52867 136.88235 110 ft 1 kts 122°
2026-04-24 12:04 -4.52876 136.88249 110 ft 3 kts 122°
2026-04-24 12:04 -4.52893 136.88276 110 ft 5 kts 122°
2026-04-24 12:04 -4.52917 136.88314 110 ft 7 kts 122°
2026-04-24 12:05 -4.52931 136.88337 110 ft 3 kts 121°
2026-04-24 12:05 -4.52939 136.88362 110 ft 5 kts 98°
2026-04-24 12:05 -4.52920 136.88392 110 ft 6 kts 39°
2026-04-24 12:05 -4.52893 136.88409 110 ft 2 kts 33°
2026-04-24 12:06 -4.52888 136.88413 110 ft 0 kts 32°
2026-04-24 12:06 -4.52885 136.88415 110 ft 2 kts 33°
2026-04-24 12:06 -4.52880 136.88418 110 ft 0 kts 33°
2026-04-24 12:09 -4.52872 136.88423 110 ft 2 kts 33°
2026-04-24 12:09 -4.52853 136.88436 110 ft 4 kts 33°
2026-04-24 12:09 -4.52826 136.88456 111 ft 6 kts 43°
2026-04-24 12:10 -4.52821 136.88497 110 ft 7 kts 107°
2026-04-24 12:10 -4.52850 136.88550 110 ft 10 kts 123°
2026-04-24 12:10 -4.52892 136.88616 110 ft 12 kts 122°
2026-04-24 12:11 -4.52997 136.88786 109 ft 17 kts 122°
2026-04-24 12:11 -4.53064 136.88894 107 ft 20 kts 122°
2026-04-24 12:11 -4.53139 136.89015 109 ft 21 kts 120°
2026-04-24 12:11 -4.53221 136.89147 109 ft 23 kts 122°
2026-04-24 12:12 -4.53309 136.89289 110 ft 25 kts 122°
2026-04-24 12:12 -4.53401 136.89436 110 ft 24 kts 122°
2026-04-24 12:12 -4.53456 136.89524 110 ft 10 kts 122°
2026-04-24 12:12 -4.53483 136.89570 111 ft 5 kts 113°
2026-04-24 12:13 -4.53486 136.89612 111 ft 7 kts 91°
2026-04-24 12:13 -4.53498 136.89649 111 ft 5 kts 141°
2026-04-24 12:13 -4.53521 136.89641 111 ft 2 kts 237°
2026-04-24 12:13 -4.53517 136.89622 111 ft 3 kts 293°
2026-04-24 12:14 -4.53512 136.89614 109 ft 2 kts 302°
2026-04-24 12:14 -4.53499 136.89593 111 ft 9 kts 302°
2026-04-24 12:14 -4.53333 136.89325 110 ft 81 kts 302°
2026-04-24 12:14 -4.52932 136.88681 110 ft 134 kts 302°
2026-04-24 12:15 -4.52375 136.87786 355 ft 155 kts 302°
2026-04-24 12:15 -4.51829 136.86888 1010 ft 150 kts 301°
2026-04-24 12:15 -4.51279 136.85995 1594 ft 151 kts 302°
2026-04-24 12:15 -4.50732 136.85102 2166 ft 150 kts 301°
2026-04-24 12:16 -4.50177 136.84217 2742 ft 150 kts 302°
2026-04-24 12:16 -4.49618 136.83320 3197 ft 154 kts 302°
2026-04-24 12:16 -4.49053 136.82403 3639 ft 156 kts 302°
2026-04-24 12:16 -4.48478 136.81474 4115 ft 157 kts 302°
2026-04-24 12:17 -4.47898 136.80543 4586 ft 159 kts 302°
2026-04-24 12:17 -4.47309 136.79603 5053 ft 160 kts 302°
2026-04-24 12:17 -4.46706 136.78649 5405 ft 170 kts 302°
2026-04-24 12:17 -4.46037 136.77589 5629 ft 189 kts 302°
2026-04-24 12:18 -4.45313 136.76411 5820 ft 208 kts 301°
2026-04-24 12:18 -4.44718 136.74999 5928 ft 235 kts 281°
2026-04-24 12:18 -4.44725 136.73314 6423 ft 248 kts 257°
2026-04-24 12:18 -4.45378 136.71710 7247 ft 250 kts 237°
2026-04-24 12:19 -4.46550 136.70438 7984 ft 256 kts 216°
2026-04-24 12:19 -4.48185 136.69688 8751 ft 258 kts 191°
2026-04-24 12:19 -4.49960 136.69659 9474 ft 261 kts 168°
2026-04-24 12:19 -4.51652 136.70330 10136 ft 267 kts 148°
2026-04-24 12:20 -4.53293 136.71356 10437 ft 290 kts 147°
2026-04-24 12:20 -4.55071 136.72470 10642 ft 313 kts 147°
2026-04-24 12:20 -4.56994 136.73667 10822 ft 336 kts 148°
2026-04-24 12:20 -4.59036 136.74930 11099 ft 353 kts 148°
2026-04-24 12:21 -4.61154 136.76235 11668 ft 359 kts 148°
2026-04-24 12:21 -4.63298 136.77550 12305 ft 363 kts 148°
2026-04-24 12:21 -4.65461 136.78877 12931 ft 366 kts 147°
2026-04-24 12:21 -4.67467 136.80457 13531 ft 368 kts 134°
2026-04-24 12:22 -4.69078 136.82453 14129 ft 370 kts 121°
2026-04-24 12:22 -4.70214 136.84769 14732 ft 371 kts 108°
2026-04-24 12:22 -4.70851 136.87278 15322 ft 373 kts 101°
2026-04-24 12:22 -4.71375 136.89835 15886 ft 376 kts 100°
2026-04-24 12:23 -4.71905 136.92407 16447 ft 378 kts 101°
2026-04-24 12:23 -4.72443 136.94998 17004 ft 381 kts 101°
2026-04-24 12:23 -4.72986 136.97605 17557 ft 383 kts 101°
2026-04-24 12:23 -4.73533 137.00229 18129 ft 386 kts 101°
2026-04-24 12:24 -4.74083 137.02872 18690 ft 389 kts 101°
2026-04-24 12:24 -4.74636 137.05534 19216 ft 391 kts 101°
2026-04-24 12:24 -4.75184 137.08181 19711 ft 395 kts 101°
2026-04-24 12:24 -4.75743 137.10887 20194 ft 398 kts 101°
2026-04-24 12:25 -4.76307 137.13613 20679 ft 401 kts 101°
2026-04-24 12:25 -4.76876 137.16359 21147 ft 404 kts 101°
2026-04-24 12:25 -4.77449 137.19122 21589 ft 407 kts 101°
2026-04-24 12:25 -4.78026 137.21905 22010 ft 410 kts 101°
2026-04-24 12:26 -4.78606 137.24712 22428 ft 412 kts 101°
2026-04-24 12:26 -4.78892 137.27575 22823 ft 415 kts 89°
2026-04-24 12:26 -4.78574 137.30454 23216 ft 417 kts 77°
2026-04-24 12:26 -4.77666 137.33220 23597 ft 420 kts 65°
2026-04-24 12:27 -4.76188 137.35755 23992 ft 424 kts 53°
2026-04-24 12:27 -4.74262 137.38005 24387 ft 427 kts 49°
2026-04-24 12:27 -4.72273 137.40226 24776 ft 429 kts 49°
2026-04-24 12:27 -4.70277 137.42459 25133 ft 431 kts 49°
2026-04-24 12:28 -4.68267 137.44709 25479 ft 434 kts 49°
2026-04-24 12:28 -4.66246 137.46969 25826 ft 436 kts 49°
2026-04-24 12:28 -4.64214 137.49240 26145 ft 439 kts 49°
2026-04-24 12:28 -4.62169 137.51526 26472 ft 441 kts 49°
2026-04-24 12:29 -4.60138 137.53795 26753 ft 444 kts 49°
2026-04-24 12:29 -4.58067 137.56107 27061 ft 447 kts 49°
2026-04-24 12:29 -4.55986 137.58433 27388 ft 449 kts 49°
2026-04-24 12:29 -4.53896 137.60773 27675 ft 452 kts 49°
2026-04-24 12:30 -4.51797 137.63124 27962 ft 454 kts 49°
2026-04-24 12:30 -4.49684 137.65490 28256 ft 456 kts 49°
2026-04-24 12:30 -4.47556 137.67867 28554 ft 459 kts 49°
2026-04-24 12:30 -4.45420 137.70249 28840 ft 461 kts 49°
2026-04-24 12:31 -4.43270 137.72649 29137 ft 462 kts 49°
2026-04-24 12:31 -4.41053 137.74977 29482 ft 463 kts 43°
2026-04-24 12:31 -4.38500 137.76967 29648 ft 467 kts 33°
2026-04-24 12:31 -4.35684 137.78518 29850 ft 469 kts 27°
2026-04-24 12:32 -4.32763 137.79976 30206 ft 468 kts 27°
2026-04-24 12:32 -4.29860 137.81435 30631 ft 466 kts 28°
2026-04-24 12:32 -4.26956 137.82903 30899 ft 467 kts 28°
2026-04-24 12:32 -4.24057 137.84372 31168 ft 468 kts 28°
2026-04-24 12:33 -4.21141 137.85851 31373 ft 469 kts 28°
2026-04-24 12:33 -4.18224 137.87328 31598 ft 470 kts 28°
2026-04-24 12:33 -4.16286 137.88308 31764 ft 470 kts 28°
2026-04-24 12:33 -4.13365 137.89781 31909 ft 470 kts 28°
2026-04-24 12:34 -4.10443 137.91249 32035 ft 470 kts 28°
2026-04-24 12:34 -4.07524 137.92718 32161 ft 470 kts 28°
2026-04-24 12:34 -4.04600 137.94193 32285 ft 471 kts 28°
2026-04-24 12:34 -4.01675 137.95668 32414 ft 471 kts 28°
2026-04-24 12:35 -3.98842 137.97305 32534 ft 470 kts 37°
2026-04-24 12:35 -3.96349 137.99400 32660 ft 467 kts 47°
2026-04-24 12:35 -3.94271 138.01891 32785 ft 465 kts 58°
2026-04-24 12:35 -3.92667 138.04685 32942 ft 462 kts 65°
2026-04-24 12:36 -3.91235 138.07571 33004 ft 463 kts 65°
2026-04-24 12:36 -3.88340 138.13373 33002 ft 468 kts 65°
2026-04-24 12:37 -3.85413 138.19228 33003 ft 471 kts 65°
2026-04-24 12:37 -3.82492 138.25067 33002 ft 473 kts 65°
2026-04-24 12:38 -3.79518 138.31002 33003 ft 474 kts 65°
2026-04-24 12:38 -3.76584 138.36851 33008 ft 473 kts 65°
2026-04-24 12:39 -3.70710 138.48601 33017 ft 470 kts 65°
2026-04-24 12:40 -3.67778 138.54464 33005 ft 470 kts 65°
2026-04-24 12:40 -3.64848 138.60313 33006 ft 470 kts 65°
2026-04-24 12:41 -3.61931 138.66128 32985 ft 470 kts 65°
2026-04-24 12:41 -3.59002 138.71975 33009 ft 470 kts 65°
2026-04-24 12:42 -3.56077 138.77809 33011 ft 469 kts 65°
2026-04-24 12:42 -3.53152 138.83648 33002 ft 468 kts 65°
2026-04-24 12:43 -3.50231 138.89479 32983 ft 469 kts 65°
2026-04-24 12:43 -3.47299 138.95309 33016 ft 468 kts 65°
2026-04-24 12:44 -3.44394 139.01116 33026 ft 465 kts 65°
2026-04-24 12:44 -3.41504 139.06890 33036 ft 462 kts 65°
2026-04-24 12:45 -3.38459 139.12550 33030 ft 461 kts 62°
2026-04-24 12:45 -3.35196 139.18066 33028 ft 460 kts 61°
2026-04-24 12:46 -3.31923 139.23557 33019 ft 459 kts 62°
2026-04-24 12:46 -3.28712 139.29078 33018 ft 458 kts 62°
2026-04-24 12:47 -3.25565 139.34572 33012 ft 458 kts 62°
2026-04-24 12:47 -3.23977 139.37339 32836 ft 459 kts 62°
2026-04-24 12:47 -3.22379 139.40112 32580 ft 459 kts 62°
2026-04-24 12:47 -3.20781 139.42877 31892 ft 461 kts 62°
2026-04-24 12:48 -3.19159 139.45681 30881 ft 468 kts 62°
2026-04-24 12:48 -3.17525 139.48502 30167 ft 468 kts 61°
2026-04-24 12:48 -3.15891 139.51322 29591 ft 469 kts 61°
2026-04-24 12:48 -3.14258 139.54142 28969 ft 467 kts 61°
2026-04-24 12:49 -3.12641 139.56937 28332 ft 462 kts 62°
2026-04-24 12:49 -3.11037 139.59706 27705 ft 457 kts 62°
2026-04-24 12:49 -3.09452 139.62442 27094 ft 453 kts 61°
2026-04-24 12:49 -3.07855 139.65205 26472 ft 463 kts 61°
2026-04-24 12:50 -3.06247 139.67992 25849 ft 463 kts 60°
2026-04-24 12:50 -3.04642 139.70774 25226 ft 460 kts 60°
2026-04-24 12:50 -3.03041 139.73550 24609 ft 465 kts 60°
2026-04-24 12:50 -3.01403 139.76388 23994 ft 475 kts 60°
2026-04-24 12:51 -2.99746 139.79256 23376 ft 475 kts 59°
2026-04-24 12:51 -2.98100 139.82105 22785 ft 472 kts 60°
2026-04-24 12:51 -2.96464 139.84932 22200 ft 467 kts 60°
2026-04-24 12:51 -2.94845 139.87724 21656 ft 462 kts 60°
2026-04-24 12:52 -2.93239 139.90493 21100 ft 458 kts 60°
2026-04-24 12:52 -2.91645 139.93243 20550 ft 455 kts 60°
2026-04-24 12:52 -2.90086 139.95936 19982 ft 451 kts 60°
2026-04-24 12:52 -2.88502 139.98677 19406 ft 448 kts 60°
2026-04-24 12:53 -2.86970 140.01329 18833 ft 444 kts 60°
2026-04-24 12:53 -2.85406 140.04033 18218 ft 441 kts 60°
2026-04-24 12:53 -2.83897 140.06643 17625 ft 438 kts 60°
2026-04-24 12:53 -2.82360 140.09300 17063 ft 434 kts 60°
2026-04-24 12:54 -2.80877 140.11867 16469 ft 429 kts 60°
2026-04-24 12:54 -2.79389 140.14441 15852 ft 425 kts 61°
2026-04-24 12:54 -2.77917 140.16988 15252 ft 422 kts 60°
2026-04-24 12:54 -2.76448 140.19521 14644 ft 419 kts 60°
2026-04-24 12:55 -2.74995 140.22029 14035 ft 415 kts 60°
2026-04-24 12:55 -2.73554 140.24515 13430 ft 412 kts 60°
2026-04-24 12:55 -2.72125 140.26983 12836 ft 408 kts 60°
2026-04-24 12:55 -2.70711 140.29428 12232 ft 403 kts 60°
2026-04-24 12:56 -2.69312 140.31843 11648 ft 399 kts 61°
2026-04-24 12:56 -2.67928 140.34236 11069 ft 396 kts 60°
2026-04-24 12:56 -2.66555 140.36607 10557 ft 388 kts 60°
2026-04-24 12:56 -2.65231 140.38886 10430 ft 369 kts 60°
2026-04-24 12:57 -2.63974 140.41049 10294 ft 351 kts 61°
2026-04-24 12:57 -2.62777 140.43115 10170 ft 336 kts 61°
2026-04-24 12:57 -2.61629 140.45100 10043 ft 324 kts 61°
2026-04-24 12:57 -2.60520 140.47015 9914 ft 312 kts 61°
2026-04-24 12:58 -2.59468 140.48869 9784 ft 301 kts 65°
2026-04-24 12:58 -2.58912 140.50824 9662 ft 289 kts 86°
2026-04-24 12:58 -2.59087 140.52789 9436 ft 282 kts 105°
2026-04-24 12:58 -2.59946 140.54584 8711 ft 295 kts 125°
2026-04-24 12:59 -2.61190 140.56246 7921 ft 308 kts 126°
2026-04-24 12:59 -2.62502 140.57991 7150 ft 319 kts 126°
2026-04-24 12:59 -2.63838 140.59776 6657 ft 320 kts 126°
2026-04-24 12:59 -2.65161 140.61552 6227 ft 318 kts 126°
2026-04-24 13:00 -2.66460 140.63303 6049 ft 307 kts 126°
2026-04-24 13:00 -2.67696 140.64973 6058 ft 290 kts 126°
2026-04-24 13:00 -2.68864 140.66553 6061 ft 275 kts 126°
2026-04-24 13:00 -2.69980 140.68062 6061 ft 268 kts 126°
2026-04-24 13:01 -2.71089 140.69563 6060 ft 268 kts 126°
2026-04-24 13:01 -2.71840 140.70578 6063 ft 268 kts 126°
2026-04-24 13:01 -2.72949 140.72072 6062 ft 268 kts 126°
2026-04-24 13:01 -2.74068 140.73571 5930 ft 271 kts 126°
2026-04-24 13:02 -2.75227 140.75123 5193 ft 286 kts 126°
2026-04-24 13:02 -2.76444 140.76751 4431 ft 300 kts 127°
2026-04-24 13:02 -2.77770 140.78351 4126 ft 296 kts 138°
2026-04-24 13:02 -2.79549 140.79276 4049 ft 285 kts 166°
2026-04-24 13:03 -2.81473 140.79275 4058 ft 274 kts 192°
2026-04-24 13:03 -2.83129 140.78438 4058 ft 264 kts 219°
2026-04-24 13:03 -2.84216 140.77014 4060 ft 258 kts 245°
2026-04-24 13:03 -2.84600 140.75296 4060 ft 259 kts 270°
2026-04-24 13:04 -2.84213 140.73549 4065 ft 260 kts 297°
2026-04-24 13:04 -2.83119 140.72135 4065 ft 258 kts 324°
2026-04-24 13:04 -2.81552 140.71321 4055 ft 254 kts 348°
2026-04-24 13:04 -2.79806 140.71236 4066 ft 251 kts 13°
2026-04-24 13:05 -2.78117 140.71651 4062 ft 250 kts 18°
2026-04-24 13:05 -2.76447 140.72141 4062 ft 250 kts 18°
2026-04-24 13:05 -2.74713 140.72323 4060 ft 254 kts 355°
2026-04-24 13:05 -2.73035 140.71753 4063 ft 258 kts 328°
2026-04-24 13:06 -2.71743 140.70510 4063 ft 260 kts 306°
2026-04-24 13:06 -2.71033 140.68864 4058 ft 260 kts 278°
2026-04-24 13:06 -2.71119 140.67077 4062 ft 258 kts 251°
2026-04-24 13:06 -2.71976 140.65536 4061 ft 254 kts 224°
2026-04-24 13:07 -2.73396 140.64550 4065 ft 249 kts 198°
2026-04-24 13:07 -2.75078 140.64276 4047 ft 243 kts 173°
2026-04-24 13:07 -2.76668 140.64737 4062 ft 240 kts 148°
2026-04-24 13:07 -2.77926 140.65811 4057 ft 237 kts 128°
2026-04-24 13:08 -2.78864 140.67161 4048 ft 235 kts 112°
2026-04-24 13:08 -2.79203 140.68768 4052 ft 237 kts 89°
2026-04-24 13:08 -2.78851 140.70376 4047 ft 240 kts 66°
2026-04-24 13:09 -2.76351 140.72531 4070 ft 250 kts 17°
2026-04-24 13:09 -2.74620 140.72611 4057 ft 253 kts 350°
2026-04-24 13:09 -2.73006 140.71906 4061 ft 258 kts 323°
2026-04-24 13:09 -2.71790 140.70587 4062 ft 259 kts 308°
2026-04-24 13:10 -2.70688 140.69141 3822 ft 263 kts 307°
2026-04-24 13:10 -2.69599 140.67673 3524 ft 262 kts 307°
2026-04-24 13:10 -2.68536 140.66232 3253 ft 261 kts 307°
2026-04-24 13:10 -2.67469 140.64782 2982 ft 258 kts 307°
2026-04-24 13:11 -2.66408 140.63345 2715 ft 254 kts 307°
2026-04-24 13:11 -2.65364 140.61936 2451 ft 249 kts 308°
2026-04-24 13:11 -2.64476 140.60483 2291 ft 243 kts 291°
2026-04-24 13:11 -2.63931 140.58933 2253 ft 228 kts 288°
2026-04-24 13:12 -2.63464 140.57471 2254 ft 213 kts 288°
2026-04-24 13:12 -2.63031 140.56097 2267 ft 200 kts 288°
2026-04-24 13:12 -2.62622 140.54837 2265 ft 180 kts 290°
2026-04-24 13:12 -2.62190 140.53741 2254 ft 162 kts 294°
2026-04-24 13:13 -2.61662 140.52774 2273 ft 155 kts 302°
2026-04-24 13:13 -2.61106 140.51883 2270 ft 148 kts 302°
2026-04-24 13:13 -2.60558 140.51017 2265 ft 146 kts 300°
2026-04-24 13:13 -2.60068 140.50129 2264 ft 146 kts 298°
2026-04-24 13:14 -2.59604 140.49245 2263 ft 145 kts 297°
2026-04-24 13:14 -2.59137 140.48349 2263 ft 145 kts 297°
2026-04-24 13:14 -2.58667 140.47449 2267 ft 146 kts 298°
2026-04-24 13:14 -2.58200 140.46554 2262 ft 145 kts 298°
2026-04-24 13:15 -2.57642 140.45712 2237 ft 147 kts 325°
2026-04-24 13:15 -2.56689 140.45509 2257 ft 145 kts 14°
2026-04-24 13:15 -2.55933 140.46140 2247 ft 147 kts 67°
2026-04-24 13:15 -2.55859 140.47157 2106 ft 152 kts 93°
2026-04-24 13:16 -2.55974 140.48217 1651 ft 153 kts 98°
2026-04-24 13:16 -2.56200 140.49253 1208 ft 153 kts 109°
2026-04-24 13:16 -2.56693 140.50204 697 ft 156 kts 122°
2026-04-24 13:16 -2.57283 140.51090 350 ft 149 kts 126°
2026-04-24 13:17 -2.57910 140.51898 377 ft 148 kts 129°
2026-04-24 13:17 -2.58614 140.52792 809 ft 173 kts 128°
2026-04-24 13:17 -2.59363 140.53737 1682 ft 173 kts 128°
2026-04-24 13:17 -2.60107 140.54672 2454 ft 170 kts 128°
2026-04-24 13:18 -2.60849 140.55599 2900 ft 172 kts 127°
2026-04-24 13:18 -2.61605 140.56538 3351 ft 175 kts 126°
2026-04-24 13:18 -2.62373 140.57490 3805 ft 176 kts 125°
2026-04-24 13:18 -2.63158 140.58455 4391 ft 182 kts 126°
2026-04-24 13:19 -2.63966 140.59476 4678 ft 195 kts 123°
2026-04-24 13:19 -2.64773 140.60634 4649 ft 212 kts 122°
2026-04-24 13:19 -2.65611 140.61867 4626 ft 216 kts 123°
2026-04-24 13:19 -2.66686 140.62871 4653 ft 218 kts 153°
2026-04-24 13:20 -2.68174 140.63114 4656 ft 221 kts 187°
2026-04-24 13:20 -2.69578 140.62479 4658 ft 227 kts 219°
2026-04-24 13:20 -2.70454 140.61165 4657 ft 233 kts 253°
2026-04-24 13:20 -2.70484 140.59555 4656 ft 236 kts 287°
2026-04-24 13:21 -2.69689 140.58123 4671 ft 238 kts 309°
2026-04-24 13:21 -2.68638 140.56868 4656 ft 231 kts 312°
2026-04-24 13:21 -2.67601 140.55692 4647 ft 221 kts 313°
2026-04-24 13:21 -2.66614 140.54579 4622 ft 207 kts 312°
2026-04-24 13:22 -2.65680 140.53524 4485 ft 196 kts 313°
2026-04-24 13:22 -2.64812 140.52543 4357 ft 184 kts 313°
2026-04-24 13:22 -2.63982 140.51596 4153 ft 178 kts 309°
2026-04-24 13:22 -2.63277 140.50591 3876 ft 176 kts 304°
2026-04-24 13:23 -2.62625 140.49561 3576 ft 175 kts 303°
2026-04-24 13:23 -2.61962 140.48549 3298 ft 174 kts 307°
2026-04-24 13:23 -2.61263 140.47570 3008 ft 172 kts 308°
2026-04-24 13:23 -2.60798 140.46928 2815 ft 171 kts 308°
2026-04-24 13:24 -2.59800 140.45699 2437 ft 171 kts 312°
2026-04-24 13:24 -2.59286 140.45094 2340 ft 171 kts 311°
2026-04-24 13:24 -2.58528 140.44229 2146 ft 160 kts 312°
2026-04-24 13:24 -2.57513 140.43249 2052 ft 148 kts 332°
2026-04-24 13:25 -2.56526 140.43043 2050 ft 147 kts
2026-04-24 13:25 -2.55860 140.43202 2074 ft 146 kts 15°
2026-04-24 13:25 -2.55039 140.43754 1936 ft 148 kts 65°
2026-04-24 13:25 -2.55111 140.45064 1451 ft 147 kts 98°
2026-04-24 13:26 -2.55171 140.45731 1288 ft 143 kts 94°
2026-04-24 13:26 -2.55242 140.46749 1145 ft 145 kts 94°
2026-04-24 13:26 -2.55349 140.47739 1013 ft 145 kts 100°
2026-04-24 13:26 -2.55710 140.48675 829 ft 144 kts 120°
2026-04-24 13:27 -2.56219 140.49540 639 ft 144 kts 121°
2026-04-24 13:27 -2.56772 140.50374 421 ft 143 kts 125°
2026-04-24 13:27 -2.57355 140.51187 306 ft 139 kts 126°
2026-04-24 13:27 -2.57848 140.51845 300 ft 94 kts 125°
2026-04-24 13:28 -2.58136 140.52233 297 ft 45 kts 127°
2026-04-24 13:28 -2.58279 140.52424 297 ft 29 kts 126°
2026-04-24 13:28 -2.58354 140.52525 301 ft 17 kts 127°
2026-04-24 13:28 -2.58405 140.52593 297 ft 10 kts 127°
2026-04-24 13:29 -2.58422 140.52658 297 ft 10 kts 80°
2026-04-24 13:29 -2.58382 140.52707 300 ft 7 kts 39°
2026-04-24 13:29 -2.58338 140.52735 299 ft 8 kts 13°
2026-04-24 13:29 -2.58288 140.52698 298 ft 11 kts 308°
2026-04-24 13:30 -2.58238 140.52634 298 ft 13 kts 304°
2026-04-24 13:30 -2.58196 140.52575 298 ft 11 kts 306°
2026-04-24 13:30 -2.58146 140.52508 298 ft 13 kts 307°
2026-04-24 13:30 -2.58084 140.52427 299 ft 16 kts 307°
2026-04-24 13:31 -2.58012 140.52330 299 ft 19 kts 307°
2026-04-24 13:31 -2.57935 140.52227 298 ft 21 kts 307°
2026-04-24 13:31 -2.57843 140.52105 302 ft 23 kts 307°
2026-04-24 13:31 -2.57755 140.51988 298 ft 12 kts 307°
2026-04-24 13:32 -2.57720 140.51939 298 ft 10 kts 306°
2026-04-24 13:32 -2.57675 140.51879 299 ft 12 kts 307°
2026-04-24 13:32 -2.57617 140.51803 298 ft 15 kts 307°
2026-04-24 13:32 -2.57550 140.51713 299 ft 18 kts 307°
2026-04-24 13:33 -2.57471 140.51606 300 ft 20 kts 306°
2026-04-24 13:33 -2.57381 140.51486 300 ft 19 kts 307°
2026-04-24 13:33 -2.57342 140.51435 298 ft 7 kts 307°
2026-04-24 13:33 -2.57310 140.51393 301 ft 8 kts 307°
2026-04-24 13:34 -2.57276 140.51347 299 ft 9 kts 307°
2026-04-24 13:34 -2.57238 140.51295 298 ft 9 kts 307°
2026-04-24 13:34 -2.57206 140.51251 302 ft 6 kts 307°
2026-04-24 13:34 -2.57184 140.51223 300 ft 2 kts 308°
2026-04-24 13:35 -2.57173 140.51212 301 ft 3 kts 321°
2026-04-24 13:35 -2.57154 140.51209 300 ft 3 kts
2026-04-24 13:35 -2.57140 140.51214 298 ft 1 kts 26°
2026-04-24 13:35 -2.57136 140.51217 298 ft 1 kts 29°
2026-04-24 13:36 -2.57130 140.51221 298 ft 1 kts 34°
2026-04-24 13:36 -2.57119 140.51229 298 ft 2 kts 36°
2026-04-24 13:36 -2.57109 140.51236 299 ft 1 kts 37°
2026-04-24 13:36 -2.57105 140.51239 300 ft 1 kts 37°
2026-04-24 13:37 -2.57101 140.51242 303 ft 1 kts 37°
2026-04-24 13:37 -2.57098 140.51244 303 ft 1 kts 37°
2026-04-24 13:37 -2.57098 140.51245 303 ft 0 kts 37°